Volver al catálogo

STARLINK-34637

ActivoComunicacionesVLEO
NORAD 64776·PAYLOAD·🇺🇸 United States

Lanzado Jul 8, 2025 desde Cape Canaveral Space Force Station

Loading…

Próximos Pases (próximas 24 horas)

TLE

ActualizadoSource: CelesTrak SupGP

Época: Sep 15, 2026, 03:42 UTC

1 64776C 25147X   26258.15465278 -.00026951  00000+0 -79647-3 0  2588
2 64776  53.1580  78.8797 0001270  87.7934 270.8695 15.34396937    16

Sigue STARLINK-34637 en tiempo real con AllMySat

Download on the App Store